www.pogodaiklimat.ru
ПОГОДА в Гейтерсберге
Время
и дата
19:56 29.11
20:56 29.11
21:56 29.11
22:56 29.11
23:56 29.11
00:56 30.11
01:56 30.11
02:56 30.11
03:29 30.11
03:56 30.11
04:56 30.11
05:56 30.11
06:56 30.11
07:56 30.11
08:53 30.11
08:56 30.11
09:56 30.11
10:56 30.11
11:56 30.11
12:56 30.11
13:56 30.11
14:56 30.11
15:10 30.11
15:27 30.11
15:56 30.11
16:56 30.11
17:56 30.11
18:56 30.12
19:56 30.11
20:56 30.11
21:56 30.11
22:56 30.11
23:56 30.11
00:56 01.12
01:56 01.12
02:56 01.12
03:56 01.12
04:56 01.12
05:56 01.12
06:56 01.12
07:56 01.12
08:56 01.12
09:56 01.12
10:56 01.12
11:56 01.12
12:56 01.12
13:56 01.12
14:56 01.12
Ветер
(напр.,м/с)
Видим. Явления Облачность Т
(С)
Тd
(С)
f
(%)
Тe
(С)
Тes
(С)
Комфортность P
(гПа)
Po
(гПа)
Тmin
(С)
Tmax
(С)
R
(мм)
R24
(мм)
S
(см)
ЮВ 4 16 км ясно +6.1 +2.2 76 +2 +2 1025.1 1004.7
ЮВ 4 16 км ясно +6.1 +1.7 73 +2 +2 1024.5 1004.0
ЮВ 4 16 км 8/8 1320 м +6.1 +1.7 73 +2 +2 1024.5 1004.0
ЮВ 4 16 км 5/5 1320 м +6.1 +2.2 76 +2 +2 1023.5 1003.4
ЮВ 3 16 км 2/2 1350 м +6.7 +2.8 76 +4 +4 1023.1 1002.7
ЮВ 4 16 км 2/2 1380 м +6.1 +3.3 82 +2 +2 1021.8 1001.7 +5.6 +6.7
ЮВ 3 16 км ясно +6.1 +3.9 86 +3 +3 1021.0 1000.7
ЮВ 3 16 км слабый дождь 10/10 450 m
[Ns]
+6.7 +4.4 85 +4 +4 1020.0 1000.0
ЮВ 3 16 км 10/8 450 m
[Ac]
+7.0 +5.0 87 +4 +4 1000.0
ЮВ 3 16 км 10/10 390 м +7.2 +5.0 86 +4 +4 1019.5 999.4
ЮВ 3 16 км слабый дождь 10/10 330 m
[Ns]
+7.2 +5.6 90 +4 +4 1018.3 998.0
Ю 2 14 км дождь 10/10 270 m
[Ns]
+7.2 +6.7 97 +5 +5 1018.3 998.0
Ю 5 13 км слабый дождь 10/10 150 m
[Ns]
+7.8 +7.8 100 +4 +4 1017.3 997.0 +6.1 +7.8 3.8 3.8
Ю 6
{10}
14 км слабый дождь 10/10 150 m
[Ns]
+8.9 +8.3 96 +5 +5 1016.4 996.4
Ю 5
{8}
16 км слабый дождь 10/10 210 m
[Ns]
+9.0 +9.0 100 +5 +5 995.4
Ю 5
{8}
16 км слабый дождь 10/10 210 m
[Ns]
+9.4 +8.9 97 +6 +6 1015.3 995.1
Ю 8
{11}
16 км слабый дождь 10/10 270 m
[Ns]
+10.0 +9.4 96 +6 +6 1013.1 993.1 4.8
Ю 4
{8}
16 км слабый дождь 10/10 330 m
[Ns]
+10.6 +10.0 96 +8 +8 1012.0 992.1
Ю 6
{9}
16 км 10/10 330 м +11.1 +10.0 93 +8 +8 1010.7 990.7
Ю 5
{9}
16 км 10/10 330 м +12.2 +10.6 90 +10 +10 1009.2 989.4 +7.8 +12.2 5.1
ЮЗ 6
{11}
16 км 10/10 390 м +12.8 +11.1 89 +10 +10 1008.6 988.7
З 7
{9}
16 км 10/10 390 м +13.3 +11.7 90 +11 +11 1009.9 990.1
СЗ 8
{14}
16 км слабый дождь 10/10 390 m
[Ns]
+12.0 +8.0 76 +9 +9 990.4
З 6
{11}
16 км слабый дождь 10/10 780 m
[Ns]
+12.0 +5.0 62 +9 +9 990.7
З 9
{16}
16 км 10/10 1500 м +11.7 0.0 44 +9 +9 1011.2 991.4
СЗ 11
{15}
16 км 2/2 1950 м +10.6 -3.9 36 +7 +7 1012.3 992.4
З 9
{14}
16 км ясно +8.9 -5.6 35 +5 +5 1014.7 994.7
З 11
{17}
16 км ясно +7.8 -6.1 37 +3 +3 1015.8 995.7 +7.8 +13.9
З 6
{12}
16 км ясно +6.1 -7.2 38 +2 +2 1017.0 997.0
СЗ 10
{14}
16 км ясно +5.6 -7.2 39 0 0 1017.6 997.4
СЗ 5 16 км ясно +4.4 -7.2 43 0 0 1018.8 998.7
СЗ 7
{10}
16 км ясно +3.9 -7.8 42 -1 -1 1019.3 999.0
З 6
{10}
16 км ясно +3.3 -7.2 46 -2 -2 1019.8 999.7
СЗ 8
{11}
16 км ясно +2.8 -7.2 48 -3 -3 1020.2 1000.0 +2.8 +7.8
З 7
{10}
16 км ясно +2.8 -7.8 46 -3 -3 1021.2 1001.0
З 6 16 км ясно +2.2 -7.8 48 -3 -3 1022.8 1002.4
СЗ 3 16 км 5/5 1500 м +0.6 -7.8 53 -3 -3 1023.6 1003.4
СЗ 4 16 км ясно +0.6 -8.9 49 -4 -4 1024.9 1004.4
СЗ 5 16 км 2/2 1500 м 0.0 -8.3 54 -5 -5 1026.3 1005.7
СЗ 4
{8}
16 км ясно 0.0 -7.8 56 -5 -5 1028.0 1007.4 -1.1 +3.3 5.1
З 6
{9}
16 км ясно +0.6 -8.9 49 -5 -5 1029.3 1008.7
СЗ 7
{10}
16 км ясно +1.7 -8.9 45 -4 -4 1030.6 1010.0
СЗ 7
{9}
16 км ясно +2.8 -8.3 44 -3 -2 1031.2 1010.7
З 6
{10}
16 км ясно +3.3 -8.3 42 -2 0 1031.6 1011.0
З 6 16 км ясно +3.9 -8.3 41 -1 +1 1031.8 1011.3
СЗ 6
{9}
16 км ясно +4.4 -7.8 41 0 +2 1032.2 1011.7 +5.0
З 7
{9}
16 км ясно +5.0 -8.3 38 0 +2 1032.0 1011.3
СЗ 5 16 км ясно +5.6 -8.3 36 +2 +4 1032.2 1011.7
Местоположение метеостанции Montgomery County Airpark: широта 39.1673 долгота -77.1614 высота над уровнем моря 154 м.
В архиве по умолчанию представлена погода в Гейтерсберге за последние 1-2 суток. Обновление информации о фактической погоде в базе происходит ежечасно! Архивные данные за месяц целиком и за предыдущие месяцы Вы можете получить, выбрав интересующий диапазон дат из раскрывающегося списка и нажав кнопку "Ввод!".
Внимание! Архив погоды МЕТАР в базе сайта по станциям, не включенным в климатический монитор, хранится не более 60 дней. Нет смысла пытаться выбрать более раннюю дату.
*Определитесь, кто Вы:
Внимание! Время в таблицах - местное (без учета летнего времени). Для получения всемирного времени необходимо вычесть поправку, которая равна -5 ч.
Смотрите также архив погоды в соседних городах и на ближайших метеорологических станциях:
Партнеры нашего сайта:      
Пояснения к столбцам:
  • Ветер - указаны скорость ветра в м/с - средняя за 10 мин, порывы в срок и между сроками (в фигурных скобках) и направление, откуда дует ветер: С - северный,
  • СВ - северо-восточный, В - восточный, ЮВ - юго-восточный, Ю - южный, ЮЗ - юго-западный, З - западный, СЗ - северо-западный.
  • Видимость - горизонтальная дальность видимости в метрах или километрах. При видимости от 1 до 10 км при отсутствии осадков обычно наблюдается дымка, при ухудшении видимости до 1 км и менее - туман. В сухую погоду видимость может ухудшаться дымом, пылью или мглою.
  • Явления - указаны атмосферные явления, наблюдавшиеся в срок или в последний час перед сроком; фигурными скобками обозначены явления, наблюдавшиеся между сроками (за 1-3 часа до срока); квадратными скобками обозначены град или гололедные отложения с указанием их диаметра в мм.
  • Облачность - указаны через наклонную черту общая и нижняя облачность в баллах и высота нижней границы облаков в метрах; квадратными скобками обозначены формы облаков: Ci - перистые, Cs - перисто-слоистые, Cc - перисто-кучевые, Ac - высококучевые, As - высокослоистые, Sc - слоисто-кучевые, Ns - слоисто-дождевые, Cu - кучевые, Cb - кучево-дождевые. Подробнее классификацию облаков см. в Атласе облаков (PDF).
  • T - Температура воздуха - температура, измеренная на высоте 2 м над землей.
  • Td - Температура точки росы - температура, при понижении до которой содержащийся в воздухе водяной пар достигнет насыщения.
  • f - Относительная влажность воздуха - влажноcть воздуха, измеренная на высоте 2 м над землей.
  • Te - Эффективная температура - температура, которую ощущает одетый по сезону человек в тени. Характеристика душности погоды. При расчете учитывается влияние влажности воздуха и скорости ветра на теплоощущения человека.
  • Tes - Эффективная температура на солнце - температура, которую ощущает человек, с поправкой на солнечный нагрев. Характеристика знойности погоды. Зависит от высоты солнца над горизонтом, облачности и скорости ветра. Ночью, в пасмурную погоду, а также при ветре 12 м/с и более поправка равна нулю.
  • P - Атмосферное давление - приведенное к уровню моря атмосферное давление.
  • Po - Атмосферное давление - измеренное на уровне метеостанции атмосферное давление.
  • Tmin - Минимальная температура - минимум температуры воздуха на высоте 2 м над землей.
  • Tmax - Максимальная температура - максимум температуры воздуха на высоте 2 м над землей.
  • R - Количество осадков - Количество выпавших осадков за период времени, мм. При наведении курсора мыши на число - период времени, за который выпало указанное количество осадков.
  • R24 - Количество осадков - Количество выпавших осадков за 24 часа, мм.
  • S - Снежный покров - Высота снежного покрова, см. При наведении курсора мыши на число - состояние снежного покрова и степень покрытия местности в баллах.